Year,Month,Day,Hour,Minute,Value (Times are PST for temperature in C)
2012,09,18,00,00,11.60
2012,09,18,00,01,11.60
2012,09,18,00,02,11.60
2012,09,18,00,03,11.60
2012,09,18,00,04,11.60
2012,09,18,00,05,11.60
2012,09,18,00,06,11.60
2012,09,18,00,07,11.60
2012,09,18,00,08,11.60
2012,09,18,00,09,11.40
2012,09,18,00,10,11.40
2012,09,18,00,11,11.40
2012,09,18,00,12,11.40
2012,09,18,00,13,11.40
2012,09,18,00,14,11.40
2012,09,18,00,15,11.40
2012,09,18,00,16,11.40
2012,09,18,00,17,11.40
2012,09,18,00,18,11.40
2012,09,18,00,19,11.30
2012,09,18,00,20,11.30
2012,09,18,00,21,11.30
2012,09,18,00,22,11.30
2012,09,18,00,23,11.30
2012,09,18,00,24,11.30
2012,09,18,00,25,11.20
2012,09,18,00,26,11.20
2012,09,18,00,27,11.20
2012,09,18,00,28,11.20
2012,09,18,00,29,11.20
2012,09,18,00,30,11.10
2012,09,18,00,31,11.10
2012,09,18,00,32,11.10
2012,09,18,00,33,11.10
2012,09,18,00,34,11.10
2012,09,18,00,35,11.10
2012,09,18,00,36,11.10
2012,09,18,00,37,11.10
2012,09,18,00,38,11.10
2012,09,18,00,39,11.10
2012,09,18,00,40,11.10
2012,09,18,00,41,11.10
2012,09,18,00,42,11.00
2012,09,18,00,43,10.90
2012,09,18,00,44,10.90
2012,09,18,00,45,10.90
2012,09,18,00,46,10.90
2012,09,18,00,47,10.90
2012,09,18,00,48,10.90
2012,09,18,00,49,10.90
2012,09,18,00,50,10.90
2012,09,18,00,51,10.90
2012,09,18,00,52,10.90
2012,09,18,00,53,10.90
2012,09,18,00,54,10.90
2012,09,18,00,55,10.80
2012,09,18,00,56,10.80
2012,09,18,00,57,10.80
2012,09,18,00,58,10.80
2012,09,18,00,59,10.80
2012,09,18,01,00,10.80
2012,09,18,01,01,10.70
2012,09,18,01,02,10.70
2012,09,18,01,03,10.70
2012,09,18,01,04,10.70
2012,09,18,01,05,10.70
2012,09,18,01,06,10.70
2012,09,18,01,07,10.60
2012,09,18,01,08,10.60
2012,09,18,01,09,10.60
2012,09,18,01,10,10.60
2012,09,18,01,11,10.60
2012,09,18,01,12,10.60
2012,09,18,01,13,10.60
2012,09,18,01,14,10.60
2012,09,18,01,15,10.60
2012,09,18,01,16,10.60
2012,09,18,01,17,10.60
2012,09,18,01,18,10.60
2012,09,18,01,19,10.60
2012,09,18,01,20,10.60
2012,09,18,01,21,10.60
2012,09,18,01,22,10.60
2012,09,18,01,23,10.60
2012,09,18,01,24,10.60
2012,09,18,01,25,10.60
2012,09,18,01,26,10.60
2012,09,18,01,27,10.50
2012,09,18,01,28,10.40
2012,09,18,01,29,10.40
2012,09,18,01,30,10.40
2012,09,18,01,31,10.40
2012,09,18,01,32,10.40
2012,09,18,01,33,10.40
2012,09,18,01,34,10.40
2012,09,18,01,35,10.30
2012,09,18,01,36,10.30
2012,09,18,01,37,10.30
2012,09,18,01,38,10.30
2012,09,18,01,39,10.20
2012,09,18,01,40,10.20
2012,09,18,01,41,10.20
2012,09,18,01,42,10.20
2012,09,18,01,43,10.20
2012,09,18,01,44,10.20
2012,09,18,01,45,10.20
2012,09,18,01,46,10.20
2012,09,18,01,47,10.10
2012,09,18,01,48,10.10
2012,09,18,01,49,10.10
2012,09,18,01,50,10.10
2012,09,18,01,51,10.10
2012,09,18,01,52,10.10
2012,09,18,01,53,10.10
2012,09,18,01,54,10.10
2012,09,18,01,55,10.10
2012,09,18,01,56,10.10
2012,09,18,01,57,10.10
2012,09,18,01,58,10.10
2012,09,18,01,59,10.10
2012,09,18,02,00,10.10
2012,09,18,02,01,10.10
2012,09,18,02,02,10.10
2012,09,18,02,03,10.10
2012,09,18,02,04,10.10
2012,09,18,02,05,10.10
2012,09,18,02,06,10.10
2012,09,18,02,07,10.10
2012,09,18,02,08,10.10
2012,09,18,02,09,10.10
2012,09,18,02,10,10.10
2012,09,18,02,11,10.10
2012,09,18,02,12,10.10
2012,09,18,02,13,10.10
2012,09,18,02,14,10.00
2012,09,18,02,15,9.90
2012,09,18,02,16,9.90
2012,09,18,02,17,9.90
2012,09,18,02,18,9.90
2012,09,18,02,19,9.90
2012,09,18,02,20,9.90
2012,09,18,02,21,9.90
2012,09,18,02,22,9.90
2012,09,18,02,23,9.90
2012,09,18,02,24,9.80
2012,09,18,02,25,9.80
2012,09,18,02,26,9.80
2012,09,18,02,27,9.80
2012,09,18,02,28,9.80
2012,09,18,02,29,9.80
2012,09,18,02,30,9.80
2012,09,18,02,31,9.80
2012,09,18,02,32,9.80
2012,09,18,02,33,9.70
2012,09,18,02,34,9.70
2012,09,18,02,35,9.70
2012,09,18,02,36,9.70
2012,09,18,02,37,9.70
2012,09,18,02,38,9.70
2012,09,18,02,39,9.70
2012,09,18,02,40,9.70
2012,09,18,02,41,9.70
2012,09,18,02,42,9.70
2012,09,18,02,43,9.70
2012,09,18,02,44,9.70
2012,09,18,02,45,9.70
2012,09,18,02,46,9.70
2012,09,18,02,47,9.70
2012,09,18,02,48,9.60
2012,09,18,02,49,9.60
2012,09,18,02,50,9.60
2012,09,18,02,51,9.60
2012,09,18,02,52,9.60
2012,09,18,02,53,9.60
2012,09,18,02,54,9.60
2012,09,18,02,55,9.60
2012,09,18,02,56,9.50
2012,09,18,02,57,9.50
2012,09,18,02,58,9.50
2012,09,18,02,59,9.50
2012,09,18,03,00,9.40
2012,09,18,03,01,9.40
2012,09,18,03,02,9.40
2012,09,18,03,03,9.40
2012,09,18,03,04,9.30
2012,09,18,03,05,9.30
2012,09,18,03,06,9.30
2012,09,18,03,07,9.30
2012,09,18,03,08,9.30
2012,09,18,03,09,9.30
2012,09,18,03,10,9.20
2012,09,18,03,11,9.20
2012,09,18,03,12,9.20
2012,09,18,03,13,9.20
2012,09,18,03,14,9.20
2012,09,18,03,15,9.20
2012,09,18,03,16,9.20
2012,09,18,03,17,9.20
2012,09,18,03,18,9.20
2012,09,18,03,19,9.10
2012,09,18,03,20,9.10
2012,09,18,03,21,9.10
2012,09,18,03,22,9.10
2012,09,18,03,23,9.00
2012,09,18,03,24,9.00
2012,09,18,03,25,9.00
2012,09,18,03,26,9.00
2012,09,18,03,27,9.00
2012,09,18,03,28,8.90
2012,09,18,03,29,8.90
2012,09,18,03,30,8.90
2012,09,18,03,31,8.90
2012,09,18,03,32,8.90
2012,09,18,03,33,8.90
2012,09,18,03,34,8.90
2012,09,18,03,35,8.80
2012,09,18,03,36,8.80
2012,09,18,03,37,8.80
2012,09,18,03,38,8.80
2012,09,18,03,39,8.80
2012,09,18,03,40,8.80
2012,09,18,03,41,8.80
2012,09,18,03,42,8.80
2012,09,18,03,43,8.80
2012,09,18,03,44,8.80
2012,09,18,03,45,8.80
2012,09,18,03,46,8.80
2012,09,18,03,47,8.80
2012,09,18,03,48,8.80
2012,09,18,03,49,8.80
2012,09,18,03,50,8.80
2012,09,18,03,51,8.80
2012,09,18,03,52,8.80
2012,09,18,03,53,8.80
2012,09,18,03,54,8.80
2012,09,18,03,55,8.80
2012,09,18,03,56,8.80
2012,09,18,03,57,8.80
2012,09,18,03,58,8.80
2012,09,18,03,59,8.80
2012,09,18,04,00,8.80
2012,09,18,04,01,8.80
2012,09,18,04,02,8.80
2012,09,18,04,03,8.80
2012,09,18,04,04,8.80
2012,09,18,04,05,8.80
2012,09,18,04,06,8.80
2012,09,18,04,07,8.70
2012,09,18,04,08,8.70
2012,09,18,04,09,8.70
2012,09,18,04,10,8.70
2012,09,18,04,11,8.70
2012,09,18,04,12,8.70
2012,09,18,04,13,8.70
2012,09,18,04,14,8.70
2012,09,18,04,15,8.70
2012,09,18,04,16,8.70
2012,09,18,04,17,8.70
2012,09,18,04,18,8.70
2012,09,18,04,19,8.70
2012,09,18,04,20,8.70
2012,09,18,04,21,8.70
2012,09,18,04,22,8.70
2012,09,18,04,23,8.70
2012,09,18,04,24,8.70
2012,09,18,04,25,8.70
2012,09,18,04,26,8.70
2012,09,18,04,27,8.70
2012,09,18,04,28,8.70
2012,09,18,04,29,8.70
2012,09,18,04,30,8.70
2012,09,18,04,31,8.70
2012,09,18,04,32,8.70
2012,09,18,04,33,8.70
2012,09,18,04,34,8.70
2012,09,18,04,35,8.70
2012,09,18,04,36,8.60
2012,09,18,04,37,8.60
2012,09,18,04,38,8.60
2012,09,18,04,39,8.60
2012,09,18,04,40,8.60
2012,09,18,04,41,8.50
2012,09,18,04,42,8.50
2012,09,18,04,43,8.50
2012,09,18,04,44,8.50
2012,09,18,04,45,8.50
2012,09,18,04,46,8.50
2012,09,18,04,47,8.50
2012,09,18,04,48,8.50
2012,09,18,04,49,8.50
2012,09,18,04,50,8.40
2012,09,18,04,51,8.40
2012,09,18,04,52,8.40
2012,09,18,04,53,8.40
2012,09,18,04,54,8.40
2012,09,18,04,55,8.40
2012,09,18,04,56,8.40
2012,09,18,04,57,8.40
2012,09,18,04,58,8.40
2012,09,18,04,59,8.50
2012,09,18,05,00,8.50
2012,09,18,05,01,8.50
2012,09,18,05,02,8.50
2012,09,18,05,03,8.50
2012,09,18,05,04,8.50
2012,09,18,05,05,8.50
2012,09,18,05,06,8.50
2012,09,18,05,07,8.50
2012,09,18,05,08,8.50
2012,09,18,05,09,8.50
2012,09,18,05,10,8.50
2012,09,18,05,11,8.50
2012,09,18,05,12,8.50
2012,09,18,05,13,8.50
2012,09,18,05,14,8.50
2012,09,18,05,15,8.40
2012,09,18,05,16,8.40
2012,09,18,05,17,8.40
2012,09,18,05,18,8.40
2012,09,18,05,19,8.40
2012,09,18,05,20,8.40
2012,09,18,05,21,8.40
2012,09,18,05,22,8.40
2012,09,18,05,23,8.40
2012,09,18,05,24,8.30
2012,09,18,05,25,8.30
2012,09,18,05,26,8.30
2012,09,18,05,27,8.30
2012,09,18,05,28,8.30
2012,09,18,05,29,8.30
2012,09,18,05,30,8.30
2012,09,18,05,31,8.30
2012,09,18,05,32,8.30
2012,09,18,05,33,8.30
2012,09,18,05,34,8.30
2012,09,18,05,35,8.30
2012,09,18,05,36,8.30
2012,09,18,05,37,8.30
2012,09,18,05,38,8.30
2012,09,18,05,39,8.40
2012,09,18,05,40,8.40
2012,09,18,05,41,8.40
2012,09,18,05,42,8.40
2012,09,18,05,43,8.40
2012,09,18,05,44,8.40
2012,09,18,05,45,8.40
2012,09,18,05,46,8.30
2012,09,18,05,47,8.30
2012,09,18,05,48,8.30
2012,09,18,05,49,8.30
2012,09,18,05,50,8.30
2012,09,18,05,51,8.30
2012,09,18,05,52,8.30
2012,09,18,05,53,8.30
2012,09,18,05,54,8.30
2012,09,18,05,55,8.30
2012,09,18,05,56,8.30
2012,09,18,05,57,8.30
2012,09,18,05,58,8.30
2012,09,18,05,59,8.30
2012,09,18,06,00,8.40
2012,09,18,06,01,8.40
2012,09,18,06,02,8.40
2012,09,18,06,03,8.30
2012,09,18,06,04,8.30
2012,09,18,06,05,8.30
2012,09,18,06,06,8.30
2012,09,18,06,07,8.30
2012,09,18,06,08,8.30
2012,09,18,06,09,8.30
2012,09,18,06,10,8.30
2012,09,18,06,11,8.30
2012,09,18,06,12,8.30
2012,09,18,06,13,8.30
2012,09,18,06,14,8.30
2012,09,18,06,15,8.30
2012,09,18,06,16,8.30
2012,09,18,06,17,8.20
2012,09,18,06,18,8.20
2012,09,18,06,19,8.20
2012,09,18,06,20,8.20
2012,09,18,06,21,8.20
2012,09,18,06,22,8.20
2012,09,18,06,23,8.20
2012,09,18,06,24,8.20
2012,09,18,06,25,8.10
2012,09,18,06,26,8.10
2012,09,18,06,27,8.10
2012,09,18,06,28,8.10
2012,09,18,06,29,8.10
2012,09,18,06,30,8.10
2012,09,18,06,31,8.00
2012,09,18,06,32,8.00
2012,09,18,06,33,8.10
2012,09,18,06,34,8.10
2012,09,18,06,35,8.10
2012,09,18,06,36,8.10
2012,09,18,06,37,8.10
2012,09,18,06,38,8.10
2012,09,18,06,39,8.10
2012,09,18,06,40,8.10
2012,09,18,06,41,8.10
2012,09,18,06,42,8.10
2012,09,18,06,43,8.10
2012,09,18,06,44,8.10
2012,09,18,06,45,8.10
2012,09,18,06,46,8.10
2012,09,18,06,47,8.10
2012,09,18,06,48,8.10
2012,09,18,06,49,8.10
2012,09,18,06,50,8.00
2012,09,18,06,51,8.00
2012,09,18,06,52,8.00
2012,09,18,06,53,8.00
2012,09,18,06,54,8.00
2012,09,18,06,55,8.00
2012,09,18,06,56,8.00
2012,09,18,06,57,8.10
2012,09,18,06,58,8.10
2012,09,18,06,59,8.20
2012,09,18,07,00,8.20
2012,09,18,07,01,8.20
2012,09,18,07,02,8.20
2012,09,18,07,03,8.20
2012,09,18,07,04,8.20
2012,09,18,07,05,8.20
2012,09,18,07,06,8.20
2012,09,18,07,07,8.20
2012,09,18,07,08,8.20
2012,09,18,07,09,8.10
2012,09,18,07,10,8.10
2012,09,18,07,11,8.10
2012,09,18,07,12,8.10
2012,09,18,07,13,8.10
2012,09,18,07,14,8.10
2012,09,18,07,15,8.10
2012,09,18,07,16,8.10
2012,09,18,07,17,8.10
2012,09,18,07,18,8.10
2012,09,18,07,19,8.00
2012,09,18,07,20,8.00
2012,09,18,07,21,8.00
2012,09,18,07,22,8.00
2012,09,18,07,23,7.90
2012,09,18,07,24,7.90
2012,09,18,07,25,7.90
2012,09,18,07,26,7.90
2012,09,18,07,27,7.90
2012,09,18,07,28,7.90
2012,09,18,07,29,7.90
2012,09,18,07,30,7.80
2012,09,18,07,31,7.80
2012,09,18,07,32,7.80
2012,09,18,07,33,7.80
2012,09,18,07,34,7.80
2012,09,18,07,35,7.80
2012,09,18,07,36,7.80
2012,09,18,07,37,7.80
2012,09,18,07,38,7.80
2012,09,18,07,39,7.80
2012,09,18,07,40,7.80
2012,09,18,07,41,7.80
2012,09,18,07,42,7.80
2012,09,18,07,43,7.80
2012,09,18,07,44,7.80
2012,09,18,07,45,7.80
2012,09,18,07,46,7.80
2012,09,18,07,47,7.80
2012,09,18,07,48,7.80
2012,09,18,07,49,7.80
2012,09,18,07,50,7.80
2012,09,18,07,51,7.80
2012,09,18,07,52,7.80
2012,09,18,07,53,7.90
2012,09,18,07,54,7.90
2012,09,18,07,55,7.90
2012,09,18,07,56,7.90
2012,09,18,07,57,7.90
2012,09,18,07,58,7.90
2012,09,18,07,59,7.90
2012,09,18,08,00,8.00
2012,09,18,08,01,8.00
2012,09,18,08,02,8.00
2012,09,18,08,03,8.00
2012,09,18,08,04,8.10
2012,09,18,08,05,8.10
2012,09,18,08,06,8.20
2012,09,18,08,07,8.20
2012,09,18,08,08,8.30
2012,09,18,08,09,8.40
2012,09,18,08,10,8.40
2012,09,18,08,11,8.50
2012,09,18,08,12,8.50
2012,09,18,08,13,8.60
2012,09,18,08,14,8.70
2012,09,18,08,15,8.70
2012,09,18,08,16,8.70
2012,09,18,08,17,8.80
2012,09,18,08,18,8.90
2012,09,18,08,19,8.90
2012,09,18,08,20,9.00
2012,09,18,08,21,9.10
2012,09,18,08,22,9.20
2012,09,18,08,23,9.30
2012,09,18,08,24,9.40
2012,09,18,08,25,9.50
2012,09,18,08,26,9.70
2012,09,18,08,27,9.80
2012,09,18,08,28,9.90
2012,09,18,08,29,10.10
2012,09,18,08,30,10.20
2012,09,18,08,31,10.30
2012,09,18,08,32,10.50
2012,09,18,08,33,10.60
2012,09,18,08,34,10.70
2012,09,18,08,35,10.90
2012,09,18,08,36,11.00
2012,09,18,08,37,11.20
2012,09,18,08,38,11.30
2012,09,18,08,39,11.50
2012,09,18,08,40,11.60
2012,09,18,08,41,11.70
2012,09,18,08,42,11.80
2012,09,18,08,43,11.90
2012,09,18,08,44,12.10
2012,09,18,08,45,12.20
2012,09,18,08,46,12.30
2012,09,18,08,47,12.50
2012,09,18,08,48,12.60
2012,09,18,08,49,12.70
2012,09,18,08,50,12.80
2012,09,18,08,51,13.00
2012,09,18,08,52,13.10
2012,09,18,08,53,13.30
2012,09,18,08,54,13.40
2012,09,18,08,55,13.50
2012,09,18,08,56,13.60
2012,09,18,08,57,13.70
2012,09,18,08,58,13.80
2012,09,18,08,59,13.90
2012,09,18,09,00,14.00
2012,09,18,09,01,14.10
2012,09,18,09,02,14.10
2012,09,18,09,03,14.20
2012,09,18,09,04,14.30
2012,09,18,09,05,14.40
2012,09,18,09,06,14.50
2012,09,18,09,07,14.50
2012,09,18,09,08,14.60
2012,09,18,09,09,14.70
2012,09,18,09,10,14.80
2012,09,18,09,11,14.90
2012,09,18,09,12,15.10
2012,09,18,09,13,15.20
2012,09,18,09,14,15.40
2012,09,18,09,15,15.50
2012,09,18,09,16,15.60
2012,09,18,09,17,15.80
2012,09,18,09,18,15.90
2012,09,18,09,19,16.00
2012,09,18,09,20,16.10
2012,09,18,09,21,16.20
2012,09,18,09,22,16.30
2012,09,18,09,23,16.50
2012,09,18,09,24,16.70
2012,09,18,09,25,16.80
2012,09,18,09,26,17.00
2012,09,18,09,27,17.10
2012,09,18,09,28,17.30
2012,09,18,09,29,17.40
2012,09,18,09,30,17.50
2012,09,18,09,31,17.70
2012,09,18,09,32,17.80
2012,09,18,09,33,17.90
2012,09,18,09,34,18.00
2012,09,18,09,35,18.20
2012,09,18,09,36,18.20
2012,09,18,09,37,18.30
2012,09,18,09,38,18.30
2012,09,18,09,39,18.40
2012,09,18,09,40,18.60
2012,09,18,09,41,18.70
2012,09,18,09,42,18.80
2012,09,18,09,43,19.00
2012,09,18,09,44,19.10
2012,09,18,09,45,19.30
2012,09,18,09,46,19.50
2012,09,18,09,47,19.60
2012,09,18,09,48,19.80
2012,09,18,09,49,19.90
2012,09,18,09,50,20.10
2012,09,18,09,51,20.20
2012,09,18,09,52,20.30
2012,09,18,09,53,20.50
2012,09,18,09,54,20.60
2012,09,18,09,55,20.70
2012,09,18,09,56,20.90
2012,09,18,09,57,21.00
2012,09,18,09,58,21.20
2012,09,18,09,59,21.30
2012,09,18,10,00,21.40
2012,09,18,10,01,21.50
2012,09,18,10,02,21.60
2012,09,18,10,03,21.60
2012,09,18,10,04,21.70
2012,09,18,10,05,21.80
2012,09,18,10,06,21.80
2012,09,18,10,07,21.90
2012,09,18,10,08,22.00
2012,09,18,10,09,22.10
2012,09,18,10,10,22.20
2012,09,18,10,11,22.30
2012,09,18,10,12,22.30
2012,09,18,10,13,22.40
2012,09,18,10,14,22.40
2012,09,18,10,15,22.50
2012,09,18,10,16,22.50
2012,09,18,10,17,22.50
2012,09,18,10,18,22.60
2012,09,18,10,19,22.60
2012,09,18,10,20,22.70
2012,09,18,10,21,22.70
2012,09,18,10,22,22.80
2012,09,18,10,23,22.90
2012,09,18,10,24,22.90
2012,09,18,10,25,22.90
2012,09,18,10,26,23.00
2012,09,18,10,27,23.10
2012,09,18,10,28,23.20
2012,09,18,10,29,23.30
2012,09,18,10,30,23.30
2012,09,18,10,31,23.40
2012,09,18,10,32,23.40
2012,09,18,10,33,23.40
2012,09,18,10,34,23.40
2012,09,18,10,35,23.30
2012,09,18,10,36,23.30
2012,09,18,10,37,23.20
2012,09,18,10,38,23.20
2012,09,18,10,39,23.10
2012,09,18,10,40,23.00
2012,09,18,10,41,22.90
2012,09,18,10,42,22.90
2012,09,18,10,43,22.90
2012,09,18,10,44,22.90
2012,09,18,10,45,22.90
2012,09,18,10,46,22.90
2012,09,18,10,47,22.90
2012,09,18,10,48,22.90
2012,09,18,10,49,22.90
2012,09,18,10,50,22.90
2012,09,18,10,51,22.90
2012,09,18,10,52,22.90
2012,09,18,10,53,22.90
2012,09,18,10,54,22.90
2012,09,18,10,55,22.90
2012,09,18,10,56,22.90
2012,09,18,10,57,23.00
2012,09,18,10,58,23.10
2012,09,18,10,59,23.20
2012,09,18,11,00,23.20
2012,09,18,11,01,23.20
2012,09,18,11,02,23.20
2012,09,18,11,03,23.30
2012,09,18,11,04,23.30
2012,09,18,11,05,23.40
2012,09,18,11,06,23.40
2012,09,18,11,07,23.50
2012,09,18,11,08,23.60
2012,09,18,11,09,23.70
2012,09,18,11,10,23.70
2012,09,18,11,11,23.70
2012,09,18,11,12,23.70
2012,09,18,11,13,23.70
2012,09,18,11,14,23.70
2012,09,18,11,15,23.70
2012,09,18,11,16,23.70
2012,09,18,11,17,23.70
2012,09,18,11,18,23.70
2012,09,18,11,19,23.70
2012,09,18,11,20,23.70
2012,09,18,11,21,23.60
2012,09,18,11,22,23.50
2012,09,18,11,23,23.40
2012,09,18,11,24,23.40
2012,09,18,11,25,23.40
2012,09,18,11,26,23.40
2012,09,18,11,27,23.60
2012,09,18,11,28,23.60
2012,09,18,11,29,23.70
2012,09,18,11,30,23.70
2012,09,18,11,31,23.70
2012,09,18,11,32,23.70
2012,09,18,11,33,23.60
2012,09,18,11,34,23.60
2012,09,18,11,35,23.70
2012,09,18,11,36,23.70
2012,09,18,11,37,23.80
2012,09,18,11,38,23.90
2012,09,18,11,39,24.00
2012,09,18,11,40,24.10
2012,09,18,11,41,24.10
2012,09,18,11,42,24.20
2012,09,18,11,43,24.30
2012,09,18,11,44,24.40
2012,09,18,11,45,24.50
2012,09,18,11,46,24.70
2012,09,18,11,47,24.80
2012,09,18,11,48,24.90
2012,09,18,11,49,25.10
2012,09,18,11,50,25.20
2012,09,18,11,51,25.30
2012,09,18,11,52,25.40
2012,09,18,11,53,25.50
2012,09,18,11,54,25.50
2012,09,18,11,55,25.50
2012,09,18,11,56,25.60
2012,09,18,11,57,25.60
2012,09,18,11,58,25.50
2012,09,18,11,59,25.50
2012,09,18,12,00,25.40
2012,09,18,12,01,25.40
2012,09,18,12,02,25.40
2012,09,18,12,03,25.40
2012,09,18,12,04,25.30
2012,09,18,12,05,25.20
2012,09,18,12,06,25.10
2012,09,18,12,07,25.10
2012,09,18,12,08,25.10
2012,09,18,12,09,25.10
2012,09,18,12,10,25.10
2012,09,18,12,11,25.10
2012,09,18,12,12,25.10
2012,09,18,12,13,25.10
2012,09,18,12,14,25.00
2012,09,18,12,15,25.00
2012,09,18,12,16,25.00
2012,09,18,12,17,25.00
2012,09,18,12,18,24.90
2012,09,18,12,19,24.90
2012,09,18,12,20,24.90
2012,09,18,12,21,24.90
2012,09,18,12,22,25.00
2012,09,18,12,23,25.10
2012,09,18,12,24,25.20
2012,09,18,12,25,25.10
2012,09,18,12,26,25.00
2012,09,18,12,27,24.90
2012,09,18,12,28,24.80
2012,09,18,12,29,24.70
2012,09,18,12,30,24.50
2012,09,18,12,31,24.50
2012,09,18,12,32,24.40
2012,09,18,12,33,24.40
2012,09,18,12,34,24.40
2012,09,18,12,35,24.40
2012,09,18,12,36,24.40
2012,09,18,12,37,24.40
2012,09,18,12,38,24.30
2012,09,18,12,39,24.30
2012,09,18,12,40,24.30
2012,09,18,12,41,24.40
2012,09,18,12,42,24.40
2012,09,18,12,43,24.50
2012,09,18,12,44,24.60
2012,09,18,12,45,24.60
2012,09,18,12,46,24.70
2012,09,18,12,47,24.60
2012,09,18,12,48,24.60
2012,09,18,12,49,24.50
2012,09,18,12,50,24.50
2012,09,18,12,51,24.50
2012,09,18,12,52,24.40
2012,09,18,12,53,24.40
2012,09,18,12,54,24.30
2012,09,18,12,55,24.40
2012,09,18,12,56,24.50
2012,09,18,12,57,24.50
2012,09,18,12,58,24.60
2012,09,18,12,59,24.70
2012,09,18,13,00,24.70
2012,09,18,13,01,24.80
2012,09,18,13,02,24.90
2012,09,18,13,03,24.90
2012,09,18,13,04,25.00
2012,09,18,13,05,25.10
2012,09,18,13,06,25.20
2012,09,18,13,07,25.30
2012,09,18,13,08,25.40
2012,09,18,13,09,25.40
2012,09,18,13,10,25.50
2012,09,18,13,11,25.50
2012,09,18,13,12,25.50
2012,09,18,13,13,25.40
2012,09,18,13,14,25.30
2012,09,18,13,15,25.20
2012,09,18,13,16,25.20
2012,09,18,13,17,25.20
2012,09,18,13,18,25.20
2012,09,18,13,19,25.20
2012,09,18,13,20,25.20
2012,09,18,13,21,25.20
2012,09,18,13,22,25.20
2012,09,18,13,23,25.10
2012,09,18,13,24,25.20
2012,09,18,13,25,25.20
2012,09,18,13,26,25.30
2012,09,18,13,27,25.30
2012,09,18,13,28,25.30
2012,09,18,13,29,25.40
2012,09,18,13,30,25.40
2012,09,18,13,31,25.50
2012,09,18,13,32,25.50
2012,09,18,13,33,25.50
2012,09,18,13,34,25.60
2012,09,18,13,35,25.60
2012,09,18,13,36,25.70
2012,09,18,13,37,25.70
2012,09,18,13,38,25.80
2012,09,18,13,39,25.80
2012,09,18,13,40,25.80
2012,09,18,13,41,25.80
2012,09,18,13,42,25.90
2012,09,18,13,43,25.90
2012,09,18,13,44,25.90
2012,09,18,13,45,25.80
2012,09,18,13,46,25.70
2012,09,18,13,47,25.60
2012,09,18,13,48,25.40
2012,09,18,13,49,25.40
2012,09,18,13,50,25.40
2012,09,18,13,51,25.40
2012,09,18,13,52,25.40
2012,09,18,13,53,25.40
2012,09,18,13,54,25.40
2012,09,18,13,55,25.50
2012,09,18,13,56,25.60
2012,09,18,13,57,25.50
2012,09,18,13,58,25.50
2012,09,18,13,59,25.40
2012,09,18,14,00,25.40
2012,09,18,14,01,25.40
2012,09,18,14,02,25.40
2012,09,18,14,03,25.30
2012,09,18,14,04,25.30
2012,09,18,14,05,25.30
2012,09,18,14,06,25.40
2012,09,18,14,07,25.40
2012,09,18,14,08,25.40
2012,09,18,14,09,25.40
2012,09,18,14,10,25.40
2012,09,18,14,11,25.50
2012,09,18,14,12,25.50
2012,09,18,14,13,25.40
2012,09,18,14,14,25.40
2012,09,18,14,15,25.40
2012,09,18,14,16,25.40
2012,09,18,14,17,25.40
2012,09,18,14,18,25.30
2012,09,18,14,19,25.20
2012,09,18,14,20,25.10
2012,09,18,14,21,25.10
2012,09,18,14,22,25.00
2012,09,18,14,23,24.90
2012,09,18,14,24,24.90
2012,09,18,14,25,24.90
2012,09,18,14,26,24.90
2012,09,18,14,27,24.90
2012,09,18,14,28,24.90
2012,09,18,14,29,25.00
2012,09,18,14,30,25.00
2012,09,18,14,31,25.00
2012,09,18,14,32,25.00
2012,09,18,14,33,25.10
2012,09,18,14,34,25.20
2012,09,18,14,35,25.30
2012,09,18,14,36,25.40
2012,09,18,14,37,25.40
2012,09,18,14,38,25.40
2012,09,18,14,39,25.50
2012,09,18,14,40,25.60
2012,09,18,14,41,25.70
2012,09,18,14,42,25.70
2012,09,18,14,43,25.80
2012,09,18,14,44,25.80
2012,09,18,14,45,25.80
2012,09,18,14,46,25.80
2012,09,18,14,47,25.70
2012,09,18,14,48,25.70
2012,09,18,14,49,25.70
2012,09,18,14,50,25.70
2012,09,18,14,51,25.70
2012,09,18,14,52,25.70
2012,09,18,14,53,25.80
2012,09,18,14,54,25.80
2012,09,18,14,55,25.90
2012,09,18,14,56,25.90
2012,09,18,14,57,25.90
2012,09,18,14,58,25.90
2012,09,18,14,59,25.90
2012,09,18,15,00,25.80
2012,09,18,15,01,25.80
2012,09,18,15,02,25.70
2012,09,18,15,03,25.70
2012,09,18,15,04,25.70
2012,09,18,15,05,25.70
2012,09,18,15,06,25.60
2012,09,18,15,07,25.60
2012,09,18,15,08,25.70
2012,09,18,15,09,25.70
2012,09,18,15,10,25.70
2012,09,18,15,11,25.70
2012,09,18,15,12,25.60
2012,09,18,15,13,25.50
2012,09,18,15,14,25.60
2012,09,18,15,15,25.50
2012,09,18,15,16,25.40
2012,09,18,15,17,25.40
2012,09,18,15,18,25.30
2012,09,18,15,19,25.30
2012,09,18,15,20,25.30
2012,09,18,15,21,25.30
2012,09,18,15,22,25.40
2012,09,18,15,23,25.30
2012,09,18,15,24,25.20
2012,09,18,15,25,25.20
2012,09,18,15,26,25.10
2012,09,18,15,27,25.10
2012,09,18,15,28,25.00
2012,09,18,15,29,25.00
2012,09,18,15,30,24.90
2012,09,18,15,31,24.90
2012,09,18,15,32,24.90
2012,09,18,15,33,25.00
2012,09,18,15,34,25.10
2012,09,18,15,35,25.10
2012,09,18,15,36,25.10
2012,09,18,15,37,25.10
2012,09,18,15,38,25.10
2012,09,18,15,39,25.00
2012,09,18,15,40,25.00
2012,09,18,15,41,24.90
2012,09,18,15,42,25.00
2012,09,18,15,43,25.00
2012,09,18,15,44,25.10
2012,09,18,15,45,25.10
2012,09,18,15,46,25.10
2012,09,18,15,47,25.10
2012,09,18,15,48,25.10
2012,09,18,15,49,25.20
2012,09,18,15,50,25.20
2012,09,18,15,51,25.20
2012,09,18,15,52,25.30
2012,09,18,15,53,25.40
2012,09,18,15,54,25.40
2012,09,18,15,55,25.50
2012,09,18,15,56,25.60
2012,09,18,15,57,25.70
2012,09,18,15,58,25.70
2012,09,18,15,59,25.70
2012,09,18,16,00,25.70
2012,09,18,16,01,25.70
2012,09,18,16,02,25.70
2012,09,18,16,03,25.80
2012,09,18,16,04,25.80
2012,09,18,16,05,25.90
2012,09,18,16,06,25.90
2012,09,18,16,07,25.90
2012,09,18,16,08,25.90
2012,09,18,16,09,25.90
2012,09,18,16,10,25.90
2012,09,18,16,11,25.90
2012,09,18,16,12,25.90
2012,09,18,16,13,25.90
2012,09,18,16,14,25.90
2012,09,18,16,15,25.90
2012,09,18,16,16,25.90
2012,09,18,16,17,25.90
2012,09,18,16,18,26.00
2012,09,18,16,19,26.00
2012,09,18,16,20,26.10
2012,09,18,16,21,26.20
2012,09,18,16,22,26.20
2012,09,18,16,23,26.20
2012,09,18,16,24,26.10
2012,09,18,16,25,26.00
2012,09,18,16,26,26.00
2012,09,18,16,27,26.00
2012,09,18,16,28,26.00
2012,09,18,16,29,26.10
2012,09,18,16,30,26.10
2012,09,18,16,31,26.10
2012,09,18,16,32,26.20
2012,09,18,16,33,26.20
2012,09,18,16,34,26.20
2012,09,18,16,35,26.20
2012,09,18,16,36,26.30
2012,09,18,16,37,26.40
2012,09,18,16,38,26.60
2012,09,18,16,39,26.50
2012,09,18,16,40,26.50
2012,09,18,16,41,26.40
2012,09,18,16,42,26.40
2012,09,18,16,43,26.40
2012,09,18,16,44,26.40
2012,09,18,16,45,26.40
2012,09,18,16,46,26.40
2012,09,18,16,47,26.30
2012,09,18,16,48,26.20
2012,09,18,16,49,26.00
2012,09,18,16,50,25.90
2012,09,18,16,51,25.90
2012,09,18,16,52,25.80
2012,09,18,16,53,25.80
2012,09,18,16,54,25.70
2012,09,18,16,55,25.70
2012,09,18,16,56,25.70
2012,09,18,16,57,25.70
2012,09,18,16,58,25.70
2012,09,18,16,59,25.70
2012,09,18,17,00,25.60
2012,09,18,17,01,25.60
2012,09,18,17,02,25.60
2012,09,18,17,03,25.60
2012,09,18,17,04,25.70
2012,09,18,17,05,25.70
2012,09,18,17,06,25.70
2012,09,18,17,07,25.80
2012,09,18,17,08,25.80
2012,09,18,17,09,25.90
2012,09,18,17,10,25.90
2012,09,18,17,11,25.90
2012,09,18,17,12,25.90
2012,09,18,17,13,25.80
2012,09,18,17,14,25.80
2012,09,18,17,15,25.70
2012,09,18,17,16,25.60
2012,09,18,17,17,25.50
2012,09,18,17,18,25.50
2012,09,18,17,19,25.50
2012,09,18,17,20,25.50
2012,09,18,17,21,25.50
2012,09,18,17,22,25.40
2012,09,18,17,23,25.30
2012,09,18,17,24,25.30
2012,09,18,17,25,25.20
2012,09,18,17,26,25.20
2012,09,18,17,27,25.10
2012,09,18,17,28,25.10
2012,09,18,17,29,25.10
2012,09,18,17,30,25.10
2012,09,18,17,31,25.10
2012,09,18,17,32,25.00
2012,09,18,17,33,24.90
2012,09,18,17,34,24.80
2012,09,18,17,35,24.80